Date String (YYYY-MM-DD hh:mm:ss) UTC,Instrument flags,absolute air pressure of the measurement (hPa),sample flow rate (lpm),inlet stack bypass flow (lpm),air temperature of the measurement (°C),ambient temperature measured by the external sensor (°C),aerosol sample conditioner tube jacket temperature (°C),OPC LED temperature (°C),internal box temperature (°C),relative humidity of the measurement (%),span deviation,mass concentration of particles derived from Lorenz-Mie calculation of OPC scattering (μg/m³),mass concentration of particles derived from Lorenz-Mie calculation of OPC scattering (μg/m³),mass concentration of particles derived from Lorenz-Mie calculation of OPC scattering (μg/m³)
DateTimeUTC,F1_M11,P_M11,Q1_M11,Q2_M11,T1_M11,T2_M11,T3_M11,T4_M11,T5_M11,U1_M11,ZSPAN_M11,X2_M11,X0_M11,X1_M11
2023-11-13 16:00:00,SystemResetWarning,0836.1,5.01,000.00,024.2,023.5,000.0,032.3,025.7,10.5,0000.0,0004.45,0012.03,0003.64
2023-11-13 16:01:00,SystemResetWarning,0836.1,5.00,000.00,024.2,023.5,000.0,032.4,025.7,10.4,0000.0,0004.46,0011.85,0003.65
2023-11-13 16:02:00,SystemResetWarning,0836.1,5.00,000.00,024.2,023.5,000.0,032.4,025.7,10.5,0000.0,0004.50,0011.23,0003.66
2023-11-13 16:03:00,SystemResetWarning,0836.1,5.00,000.00,024.2,023.5,000.0,032.4,025.7,10.5,0000.0,0004.55,0011.43,0003.67
2023-11-13 16:04:00,SystemResetWarning,0836.1,5.00,000.00,024.2,023.6,000.0,032.4,025.7,10.6,0000.0,0004.57,0011.41,0003.68
2023-11-13 16:05:00,SystemResetWarning,0836.1,5.00,000.00,024.3,023.6,000.0,032.4,025.8,10.5,0000.0,0004.58,0011.41,0003.68
2023-11-13 16:06:00,SystemResetWarning,0836.1,5.00,000.00,024.3,023.6,000.0,032.4,025.8,10.5,0000.0,0004.60,0011.50,0003.69
2023-11-13 16:07:00,SystemResetWarning,0836.1,5.00,000.00,024.3,023.6,000.0,032.4,025.9,10.5,0000.0,0004.60,0011.66,0003.69
2023-11-13 16:08:00,SystemResetWarning,0836.1,5.01,000.00,024.3,023.6,000.0,032.5,025.9,10.4,0000.0,0004.57,0010.85,0003.69
2023-11-13 16:09:00,SystemResetWarning,0836.0,5.00,000.00,024.3,023.6,000.0,032.5,025.9,10.4,0000.0,0004.56,0011.13,0003.69
2023-11-13 16:10:00,SystemResetWarning,0836.0,4.99,000.00,024.3,023.7,000.0,032.5,025.9,10.4,0000.0,0004.57,0010.62,0003.70
2023-11-13 16:11:00,SystemResetWarning,0836.0,5.00,000.00,024.4,023.7,000.0,032.5,026.0,10.3,0000.0,0004.53,0010.77,0003.69
2023-11-13 16:12:00,SystemResetWarning,0836.0,5.01,000.00,024.4,023.7,000.0,032.5,026.0,10.4,0000.0,0004.47,0010.35,0003.70
2023-11-13 16:13:00,SystemResetWarning,0836.0,5.00,000.00,024.4,023.7,000.0,032.5,026.0,10.5,0000.0,0004.48,0011.01,0003.70
2023-11-13 16:14:00,SystemResetWarning,0836.0,4.99,000.00,024.4,023.7,000.0,032.6,026.0,10.4,0000.0,0004.48,0011.05,0003.71
2023-11-13 16:15:00,SystemResetWarning,0836.0,5.00,000.00,024.4,023.7,000.0,032.6,026.0,10.4,0000.0,0004.52,0011.02,0003.73
2023-11-13 16:16:00,SystemResetWarning,0835.9,5.00,000.00,024.4,023.8,000.0,032.6,026.0,10.3,0000.0,0004.52,0011.25,0003.72
2023-11-13 16:17:00,SystemResetWarning,0836.0,5.01,000.00,024.5,023.8,000.0,032.6,026.0,10.2,0000.0,0004.52,0011.60,0003.71
2023-11-13 16:18:00,SystemResetWarning,0835.9,5.00,000.00,024.5,023.8,000.0,032.6,026.0,10.2,0000.0,0004.52,0010.98,0003.70
2023-11-13 16:19:00,SystemResetWarning,0835.9,5.01,000.00,024.5,023.8,000.0,032.7,026.1,10.3,0000.0,0004.55,0011.72,0003.71
2023-11-13 16:20:00,SystemResetWarning,0835.9,5.01,000.00,024.5,023.8,000.0,032.7,026.1,10.3,0000.0,0004.55,0011.70,0003.71
2023-11-13 16:21:00,SystemResetWarning,0835.9,5.01,000.00,024.5,023.9,000.0,032.7,026.1,10.3,0000.0,0004.56,0011.61,0003.70
2023-11-13 16:22:00,SystemResetWarning,0836.0,5.00,000.00,024.5,023.9,000.0,032.7,026.1,10.3,0000.0,0004.57,0011.37,0003.69
2023-11-13 16:23:00,SystemResetWarning,0836.0,4.99,000.00,024.6,023.9,000.0,032.7,026.1,10.2,0000.0,0004.56,0011.24,0003.68
2023-11-13 16:24:00,SystemResetWarning,0835.9,4.99,000.00,024.6,023.9,000.0,032.7,026.1,10.1,0000.0,0004.54,0011.62,0003.66
2023-11-13 16:25:00,SystemResetWarning,0835.9,5.00,000.00,024.6,023.9,000.0,032.8,026.2,10.0,0000.0,0004.51,0012.11,0003.64
2023-11-13 16:26:00,SystemResetWarning,0835.9,5.01,000.00,024.6,023.9,000.0,032.8,026.2,10.1,0000.0,0004.48,0012.22,0003.62
2023-11-13 16:27:00,SystemResetWarning,0836.0,5.00,000.00,024.6,024.0,000.0,032.8,026.2,9.9,0000.0,0004.45,0012.07,0003.62
2023-11-13 16:28:00,SystemResetWarning,0835.9,5.00,000.00,024.6,024.0,000.0,032.8,026.2,9.8,0000.0,0004.40,0012.21,0003.63
2023-11-13 16:29:00,SystemResetWarning,0835.9,5.00,000.00,024.7,024.0,000.0,032.8,026.2,9.7,0000.0,0004.37,0012.19,0003.63
2023-11-13 16:30:00,SystemResetWarning,0835.9,5.00,000.00,024.7,024.0,000.0,032.8,026.2,9.8,0000.0,0004.33,0011.57,0003.62
2023-11-13 16:31:00,SystemResetWarning,0836.0,5.00,000.00,024.7,024.0,000.0,032.8,026.2,9.9,0000.0,0004.35,0011.25,0003.62
2023-11-13 16:32:00,SystemResetWarning,0836.1,5.01,000.00,024.7,024.0,000.0,032.9,026.3,9.9,0000.0,0004.34,0011.06,0003.61
2023-11-13 16:33:00,SystemResetWarning,0836.0,5.00,000.00,024.7,024.0,000.0,032.9,026.3,9.9,0000.0,0004.37,0011.85,0003.62
2023-11-13 16:34:00,SystemResetWarning,0836.0,4.99,000.00,024.7,024.0,000.0,032.9,026.3,10.0,0000.0,0004.41,0011.79,0003.63
2023-11-13 16:35:00,SystemResetWarning,0836.0,5.00,000.00,024.7,024.0,000.0,032.9,026.3,10.0,0000.0,0004.46,0011.12,0003.64
2023-11-13 16:36:00,SystemResetWarning,0836.0,5.00,000.00,024.7,024.1,000.0,032.9,026.3,10.0,0000.0,0004.45,0010.56,0003.65
2023-11-13 16:37:00,SystemResetWarning,0836.1,5.00,000.00,024.8,024.1,000.0,032.9,026.3,10.1,0000.0,0004.45,0010.58,0003.65
2023-11-13 16:38:00,SystemResetWarning,0836.1,5.00,000.00,024.8,024.1,000.0,032.9,026.3,10.2,0000.0,0004.44,0011.42,0003.66
2023-11-13 16:39:00,SystemResetWarning,0836.1,5.01,000.00,024.8,024.1,000.0,033.0,026.3,10.3,0000.0,0004.47,0010.97,0003.66
2023-11-13 16:40:00,SystemResetWarning,0836.1,5.01,000.00,024.8,024.1,000.0,033.0,026.3,10.3,0000.0,0004.50,0011.37,0003.68
2023-11-13 16:41:00,SystemResetWarning,0836.1,5.00,000.00,024.8,024.1,000.0,033.0,026.3,10.4,0000.0,0004.55,0012.04,0003.70
2023-11-13 16:42:00,SystemResetWarning,0836.1,5.00,000.00,024.8,024.1,000.0,033.0,026.3,10.5,0000.0,0004.54,0011.88,0003.71
2023-11-13 16:43:00,SystemResetWarning,0836.1,5.00,000.00,024.8,024.1,000.0,033.0,026.3,10.4,0000.0,0004.60,0012.14,0003.72
2023-11-13 16:44:00,SystemResetWarning,0836.1,5.00,000.00,024.8,024.1,000.0,033.0,026.3,10.5,0000.0,0004.59,0011.83,0003.74
2023-11-13 16:45:00,SystemResetWarning,0836.1,5.00,000.00,024.9,024.1,000.0,033.0,026.3,10.4,0000.0,0004.60,0012.19,0003.77
2023-11-13 16:46:00,SystemResetWarning,0835.9,5.00,000.00,024.9,024.1,000.0,033.1,026.4,10.4,0000.0,0004.61,0012.27,0003.79
2023-11-13 16:47:00,SystemResetWarning,0835.9,4.99,000.00,024.9,024.1,000.0,033.1,026.4,10.7,0000.0,0004.63,0012.65,0003.82
2023-11-13 16:48:00,SystemResetWarning,0836.0,5.00,000.00,024.9,024.1,000.0,033.1,026.4,10.7,0000.0,0004.68,0013.05,0003.84
2023-11-13 16:49:00,SystemResetWarning,0836.0,5.00,000.00,024.9,024.2,000.0,033.1,026.4,10.6,0000.0,0004.77,0013.54,0003.86
2023-11-13 16:50:00,SystemResetWarning,0836.0,5.00,000.00,024.9,024.2,000.0,033.1,026.4,10.6,0000.0,0004.83,0013.51,0003.89
2023-11-13 16:51:00,SystemResetWarning,0836.0,5.00,000.00,024.9,024.2,000.0,033.1,026.4,10.7,0000.0,0004.81,0013.42,0003.88
2023-11-13 16:52:00,SystemResetWarning,0836.0,5.01,000.00,025.0,024.2,000.0,033.1,026.5,10.6,0000.0,0004.81,0013.16,0003.88
2023-11-13 16:53:00,SystemResetWarning,0835.9,5.00,000.00,025.0,024.2,000.0,033.1,026.5,10.5,0000.0,0004.85,0013.50,0003.90
2023-11-13 16:54:00,SystemResetWarning,0835.9,5.01,000.00,025.0,024.2,000.0,033.2,026.5,10.6,0000.0,0004.81,0014.13,0003.92
2023-11-13 16:55:00,SystemResetWarning,0835.8,5.01,000.00,025.0,024.3,000.0,033.2,026.5,10.8,0000.0,0004.85,0014.32,0003.92
2023-11-13 16:56:00,SystemResetWarning,0835.9,5.00,000.00,025.0,024.3,000.0,033.2,026.5,10.7,0000.0,0004.85,0013.82,0003.91
2023-11-13 16:57:00,SystemResetWarning,0835.9,5.00,000.00,025.0,024.3,000.0,033.2,026.6,10.7,0000.0,0004.82,0013.78,0003.90
2023-11-13 16:58:00,SystemResetWarning,0835.9,5.00,000.00,025.0,024.3,000.0,033.2,026.6,10.6,0000.0,0004.83,0014.45,0003.89
2023-11-13 16:59:00,SystemResetWarning,0835.9,4.99,000.00,025.1,024.3,000.0,033.2,026.6,10.6,0000.0,0004.81,0015.15,0003.89
